Vorticity
8 7 5 7 6 6 6 7 8 7 6 7 6 5 6 4 7 7 5 6 5 3 2 2 2 4 5 5 4 4 9 3 2 4 4 1 0 4 7 6 7 7 6 6
4 5 4 4 4 4 4 5 5 7 5 3 6 7 9 8 5 6 5 3 3 3 2 3 3 4 5 6 4 7 6 3 2 3 3 4 4 9 9 6 5 6 5 4
4 5 4 4 4 3 3 4 5 6 7 7 7 5 8 7 6 5 5 5 4 3 4 5 5 6 6 4 5 6 3 3 4 3 4 6 9 8 5 4 4 4 5 4
5 6 4 4 4 4 4 4 5 5 8 9 10 3 5 4 3 5 5 2 4 5 7 11 7 6 3 4 9 5 2 5 10 11 10 8 6 5 4 5 6 5 6 6
4 6 7 7 6 6 5 4 4 4 5 9 12 12 6 4 5 2 2 2 4 7 7 5 5 4 3 5 6 6 12 10 6 6 8 7 6 1 4 9 6 4 4 6
6 4 3 3 5 5 6 6 8 9 6 7 11 8 1 5 4 3 2 7 8 6 9 6 4 6 7 9 12 10 6 5 8 8 7 5 1 3 5 5 4 6 6 8
4 7 14 16 14 11 10 12 11 11 12 9 10 8 8 6 5 8 7 8 7 7 7 3 13 12 12 10 5 3 5 8 7 4 4 3 4 7 8 7 9 12 12 10
18 16 17 17 18 16 17 14 11 11 7 6 4 5 5 9 9 8 7 6 8 5 10 9 11 10 3 3 3 5 10 6 5 5 2 5 8 6 8 10 10 7 7 10
10 10 9 7 8 9 8 7 7 7 8 8 7 9 9 9 7 8 5 7 8 8 9 12 3 5 -0 5 7 9 7 5 6 6 8 5 6 7 10 8 3 10 9 12
6 4 6 5 5 6 5 6 8 7 9 8 7 7 5 6 5 8 10 5 10 11 6 6 7 3 7 8 7 6 4 5 7 5 6 6 4 5 5 6 10 17 7 11
9 10 10 10 10 10 9 9 7 6 5 6 7 6 -1 10 7 5 11 11 9 5 6 6 7 9 4 7 7 4 6 5 6 7 5 3 5 5 10 11 18 8 6 10
8 10 10 9 10 10 8 8 7 7 9 3 6 4 6 2 8 8 9 7 4 6 5 9 2 5 7 7 6 6 6 6 3 2 6 5 7 11 12 14 21 7 10 9
6 6 8 7 8 7 8 12 8 5 6 13 10 3 9 12 13 11 8 5 5 4 4 4 6 7 4 6 5 8 9 4 6 10 -3 -4 12 15 11 7 9 12 20 21
3 5 7 8 9 12 9 5 8 10 9 3 15 12 11 9 8 7 7 7 6 6 4 4 4 1 0 3 8 4 3 9 18 3 -20 2 14 9 9 10 17 20 30 30
1 0 1 4 6 9 14 10 8 9 8 7 12 15 6 8 7 9 11 5 7 3 3 6 5 5 4 8 7 8 7 8 35 -9 -12 11 9 8 15 19 24 33 27 28
2 -1 3 2 9 14 15 12 11 11 15 13 10 11 12 8 6 7 4 5 3 3 3 1 -1 2 7 12 14 14 8 -4 -2 10 16 12 9 20 18 31 30 21 22 6
4 3 -3 8 14 17 15 12 18 17 15 15 11 8 7 9 8 6 4 1 5 2 1 3 4 11 15 14 13 10 -7 -13 12 11 14 13 17 25 31 27 24 21 7 13
4 -2 1 3 11 13 16 15 12 16 11 9 9 9 3 6 4 3 5 5 2 4 3 6 11 14 15 13 11 10 2 16 12 14 19 14 30 28 27 23 13 9 11 8
1 -3 5 10 9 11 8 20 8 6 7 5 3 5 7 5 6 6 3 3 2 5 9 12 10 7 10 12 12 13 11 13 14 17 16 30 21 21 25 10 13 8 9 8
-3 -4 9 14 11 13 15 4 5 7 3 -3 6 3 5 3 3 3 3 4 6 10 10 6 9 13 9 9 12 12 15 10 17 15 28 17 15 27 12 12 7 10 7 11
-1 1 15 16 12 20 9 7 2 2 2 2 2 2 1 2 3 4 5 7 7 6 7 10 11 10 12 12 11 16 10 14 15 21 17 10 28 11 12 7 10 6 10 16
-1 16 17 17 12 17 9 6 3 5 5 4 6 1 1 1 2 5 7 8 9 11 9 10 10 9 10 12 12 8 14 15 19 15 13 21 16 12 7 10 7 8 13 17
13 19 15 12 11 7 4 5 4 4 5 5 3 2 1 -0 6 9 8 11 8 8 9 7 7 10 14 9 10 15 16 17 11 14 26 26 10 11 8 10 6 9 14 20
11 16 11 2 11 10 15 5 2 3 6 6 1 3 3 7 6 7 10 7 9 7 7 9 11 11 11 14 16 18 13 11 22 33 29 10 14 7 11 7 7 10 19 18
20 13 8 5 9 6 5 7 5 5 5 3 4 5 3 5 8 11 9 9 6 7 8 11 15 14 16 18 16 11 23 33 37 34 10 17 7 9 13 6 9 12 22 12
16 4 5 6 5 4 3 6 9 8 4 2 3 4 10 15 12 8 8 8 10 13 15 17 16 15 15 12 18 39 36 36 33 5 18 7 8 12 10 6 9 15 19 13
Height
5824 5826 5827 5828 5828 5828 5828 5828 5827 5826 5826 5826 5825 5825 5825 5823 5823 5822 5821 5820 5818 5816 5813 5810 5806 5804 5801 5797 5793 5789 5784 5780 5774 5770 5765 5761 5756 5752 5747 5742 5738 5734 5730 5724
5824 5825 5826 5826 5826 5827 5826 5825 5825 5825 5824 5824 5823 5822 5822 5821 5820 5819 5817 5815 5812 5810 5807 5805 5801 5798 5794 5791 5787 5782 5777 5772 5767 5762 5757 5752 5748 5742 5738 5733 5728 5722 5717 5712
5823 5824 5823 5823 5823 5823 5823 5823 5822 5822 5822 5821 5821 5820 5819 5818 5816 5814 5812 5810 5808 5805 5802 5799 5795 5792 5788 5783 5778 5773 5768 5764 5759 5754 5749 5744 5738 5733 5727 5722 5716 5710 5704 5698
5820 5820 5820 5820 5820 5820 5820 5820 5820 5819 5818 5818 5817 5817 5814 5812 5810 5808 5806 5805 5803 5800 5796 5793 5788 5784 5780 5775 5770 5765 5760 5756 5751 5745 5739 5734 5728 5722 5716 5711 5704 5698 5691 5685
5819 5818 5818 5818 5817 5816 5816 5816 5816 5815 5814 5813 5813 5812 5809 5808 5805 5804 5801 5800 5797 5793 5789 5785 5780 5776 5770 5765 5761 5757 5752 5746 5740 5734 5728 5722 5716 5710 5703 5696 5689 5682 5675 5667
5816 5815 5815 5814 5813 5812 5812 5812 5811 5810 5810 5809 5807 5807 5803 5803 5801 5798 5795 5792 5789 5785 5781 5777 5772 5767 5762 5757 5753 5747 5741 5734 5728 5722 5717 5710 5703 5695 5686 5679 5672 5665 5658 5651
5812 5811 5810 5809 5809 5808 5807 5807 5806 5806 5805 5803 5802 5801 5798 5797 5794 5791 5788 5785 5781 5777 5772 5767 5763 5758 5753 5747 5741 5735 5728 5722 5716 5709 5702 5695 5687 5680 5673 5666 5658 5650 5642 5634
5808 5808 5806 5805 5805 5804 5803 5803 5802 5801 5800 5798 5797 5795 5793 5790 5786 5783 5780 5776 5771 5766 5761 5756 5751 5746 5741 5735 5729 5724 5717 5710 5703 5696 5688 5681 5674 5665 5656 5646 5637 5628 5620 5612
5805 5805 5804 5802 5801 5801 5800 5799 5799 5797 5796 5794 5792 5790 5787 5782 5778 5775 5771 5766 5761 5756 5751 5747 5742 5736 5730 5724 5718 5712 5705 5697 5690 5684 5675 5666 5656 5646 5635 5626 5616 5606 5596 5587
5803 5803 5801 5800 5799 5798 5796 5795 5793 5791 5789 5788 5787 5783 5778 5773 5768 5765 5762 5758 5753 5748 5743 5738 5731 5724 5718 5712 5706 5699 5692 5683 5674 5665 5655 5644 5634 5625 5615 5606 5596 5586 5575 5566
5800 5800 5800 5798 5796 5794 5793 5790 5787 5785 5783 5779 5777 5780 5771 5763 5759 5756 5754 5751 5745 5740 5734 5729 5723 5717 5709 5702 5694 5687 5678 5668 5658 5648 5637 5628 5618 5608 5598 5587 5576 5564 5552 5541
5798 5796 5795 5794 5791 5789 5787 5783 5781 5778 5774 5771 5767 5769 5764 5755 5752 5748 5744 5740 5735 5729 5724 5719 5712 5704 5695 5688 5678 5670 5662 5653 5643 5632 5621 5612 5602 5590 5577 5564 5553 5541 5528 5515
5796 5794 5792 5790 5789 5784 5780 5777 5773 5769 5766 5764 5758 5759 5752 5746 5744 5739 5735 5730 5725 5718 5712 5706 5699 5691 5683 5675 5666 5657 5647 5637 5626 5614 5603 5592 5580 5566 5554 5542 5530 5516 5502 5489
5792 5790 5787 5785 5782 5779 5773 5769 5763 5758 5756 5750 5754 5748 5747 5739 5734 5730 5725 5721 5715 5709 5702 5694 5686 5678 5670 5661 5651 5640 5629 5618 5608 5596 5584 5571 5558 5546 5533 5520 5506 5492 5478 5467
5787 5785 5783 5778 5775 5773 5766 5760 5753 5749 5746 5741 5742 5739 5733 5730 5727 5724 5719 5713 5705 5698 5692 5685 5676 5666 5657 5647 5635 5622 5611 5601 5589 5578 5565 5552 5538 5524 5510 5495 5482 5469 5459 5451
5781 5778 5776 5774 5768 5766 5761 5752 5746 5742 5738 5733 5730 5728 5727 5721 5717 5712 5706 5700 5693 5687 5680 5671 5661 5650 5640 5628 5616 5604 5592 5582 5572 5560 5546 5532 5518 5502 5488 5474 5463 5453 5445 5439
5774 5770 5766 5764 5760 5759 5753 5745 5741 5737 5731 5727 5723 5720 5716 5712 5706 5701 5696 5689 5682 5674 5664 5655 5645 5633 5620 5609 5599 5588 5577 5565 5552 5539 5525 5511 5497 5483 5470 5458 5449 5440 5434 5426
5767 5762 5757 5753 5750 5751 5744 5736 5733 5731 5727 5722 5718 5715 5710 5705 5698 5691 5687 5678 5669 5660 5650 5639 5626 5615 5604 5595 5585 5573 5561 5547 5533 5519 5505 5492 5479 5466 5456 5446 5438 5431 5423 5414
5760 5755 5749 5743 5739 5743 5738 5732 5726 5722 5722 5717 5712 5707 5702 5696 5689 5680 5673 5664 5655 5645 5631 5620 5609 5599 5589 5578 5567 5554 5542 5528 5513 5500 5487 5475 5464 5453 5444 5436 5428 5420 5411 5402
5754 5748 5743 5735 5731 5727 5723 5721 5718 5714 5710 5706 5701 5697 5691 5683 5675 5666 5655 5645 5635 5624 5614 5604 5594 5582 5570 5558 5547 5536 5522 5510 5498 5485 5473 5461 5451 5442 5434 5426 5418 5409 5399 5390
5747 5740 5735 5728 5722 5722 5715 5712 5709 5706 5702 5694 5688 5681 5672 5665 5657 5648 5639 5628 5618 5609 5598 5587 5576 5564 5552 5540 5528 5518 5504 5493 5482 5470 5460 5450 5440 5433 5425 5416 5407 5399 5389 5378
5738 5730 5724 5720 5717 5710 5706 5703 5699 5696 5690 5684 5678 5670 5661 5652 5643 5634 5624 5614 5602 5593 5582 5571 5560 5550 5537 5524 5511 5502 5490 5477 5466 5457 5448 5439 5430 5423 5415 5407 5398 5389 5378 5368
5731 5723 5717 5711 5712 5701 5697 5693 5689 5682 5677 5670 5663 5656 5648 5639 5630 5620 5609 5598 5587 5576 5565 5553 5542 5531 5520 5507 5494 5483 5473 5462 5453 5444 5435 5428 5421 5414 5407 5398 5389 5380 5369 5359
5719 5713 5709 5703 5702 5694 5690 5685 5680 5674 5666 5659 5651 5643 5634 5625 5614 5604 5593 5582 5571 5560 5548 5537 5525 5515 5503 5490 5478 5465 5456 5447 5437 5429 5424 5419 5413 5406 5398 5390 5381 5371 5361 5352
5709 5701 5696 5694 5691 5685 5681 5674 5668 5661 5653 5645 5635 5627 5618 5608 5599 5588 5578 5567 5555 5544 5532 5520 5507 5495 5484 5472 5461 5449 5439 5430 5423 5418 5415 5411 5405 5398 5391 5383 5375 5363 5354 5346
5696 5691 5686 5682 5678 5673 5666 5660 5653 5647 5639 5630 5621 5611 5601 5591 5582 5573 5563 5551 5537 5526 5514 5503 5491 5477 5466 5454 5443 5432 5423 5417 5413 5411 5408 5404 5398 5392 5384 5377 5367 5360 5349 5340